Temp
10 10 9 9 9 9 9 9 9 9 10 10 10 10 10 10 10 10 10 10 10 9 9 9 9 9 9 9 9 8 8 9 9 9 9 9 9 9 9 9 8 7 6 6 6 6 6 6 6 6 6 6 6 7 7 7 7 8 8 9 10 10 11 11 11 11 11 11 11 11 12 11 11 12 12 12 11 11 11 11 11 11 11 11 12
9 9 8 7 8 8 8 9 9 9 9 10 9 9 9 9 9 9 9 9 9 9 9 9 9 9 8 8 8 8 8 8 8 8 8 8 8 8 8 8 7 6 5 5 5 5 5 5 5 5 6 6 6 6 7 7 7 7 7 8 9 10 10 10 10 10 11 11 11 11 11 11 11 12 11 12 12 11 11 11 11 11 11 11 11
7 7 7 7 7 7 7 8 8 8 9 9 9 9 9 9 9 9 9 9 9 8 8 8 8 8 7 7 7 7 7 7 7 7 8 8 7 7 7 7 5 5 4 4 4 4 5 5 5 5 6 6 6 7 7 7 7 7 8 8 8 9 9 9 9 10 10 10 11 11 11 11 11 11 11 11 11 11 11 11 11 11 11 11 11
5 6 6 6 6 6 7 7 8 8 8 8 8 8 8 8 8 8 8 8 8 8 8 8 7 7 7 7 6 7 7 7 7 7 7 7 6 6 6 5 4 4 4 4 4 4 4 5 5 6 6 6 6 6 7 7 7 7 8 8 8 8 9 9 9 9 9 10 10 11 11 11 11 11 11 11 11 11 11 11 11 11 11 11 11
4 5 5 5 5 6 7 7 7 7 8 8 8 8 8 8 8 8 8 8 8 7 7 7 7 6 6 6 6 6 6 6 7 7 7 7 6 5 5 4 3 3 3 3 3 3 4 4 4 5 5 5 6 6 6 6 6 7 7 7 8 8 8 9 9 9 9 9 10 11 11 11 11 11 11 11 11 11 10 10 11 11 11 11 11
4 4 4 4 6 6 7 7 7 7 7 7 7 7 8 8 8 8 8 8 7 7 7 6 6 6 6 6 6 6 6 6 6 6 6 7 6 4 4 3 3 3 3 3 3 3 3 3 3 3 4 4 5 5 6 6 6 6 6 7 7 7 8 8 9 9 9 9 10 10 11 11 11 11 12 11 11 11 11 10 11 11 11 11 11
4 4 4 5 6 7 6 6 7 7 7 7 7 7 7 7 7 7 7 7 7 6 6 6 6 5 5 5 5 6 6 6 6 6 6 6 5 3 3 3 3 3 3 3 3 2 2 2 2 3 3 3 4 4 5 5 5 6 6 6 6 6 7 8 9 9 9 10 10 10 11 11 11 11 11 11 11 11 11 10 10 11 11 11 11
4 5 5 6 6 6 6 6 6 6 7 7 7 7 7 7 7 7 7 7 6 6 6 5 5 5 5 5 5 5 5 5 6 6 6 6 5 3 2 2 2 3 3 3 2 2 2 2 2 2 3 3 3 4 4 4 4 5 5 6 6 6 6 7 8 8 9 9 10 10 11 11 11 11 11 11 11 11 11 11 11 11 11 11 11
5 5 5 6 6 6 6 6 6 6 6 6 6 7 7 6 6 6 6 6 6 5 5 5 5 5 4 4 4 4 5 5 5 5 5 6 5 2 2 2 2 2 2 2 2 1 1 1 2 2 3 3 4 4 4 4 3 4 4 5 6 6 7 7 7 7 8 9 9 10 10 11 11 11 11 11 11 11 11 11 10 10 10 11 11
5 5 5 5 6 6 6 6 6 6 6 6 6 6 6 6 6 6 5 5 5 5 5 5 5 4 4 4 4 4 4 4 5 5 5 6 5 2 1 1 1 1 1 1 1 1 0 1 1 2 2 3 4 5 5 5 4 4 4 4 5 5 6 6 6 7 7 8 9 9 9 10 11 11 11 11 11 11 11 10 10 10 10 11 11
5 5 5 5 5 5 5 5 5 5 6 6 6 6 6 6 5 5 5 5 5 5 5 5 5 4 4 4 4 4 4 4 4 5 5 6 6 3 1 1 1 1 1 0 0 0 0 0 0 1 1 2 3 4 5 5 5 5 5 5 5 4 4 4 5 6 6 7 8 8 8 9 10 10 11 11 11 11 11 10 10 10 10 10 11
5 5 5 4 4 5 5 5 5 5 5 5 5 5 5 5 5 5 5 4 4 5 5 4 4 4 4 4 4 4 4 4 4 5 5 6 6 3 0 0 1 0 0 -0 -0 -0 0 0 0 0 0 1 1 2 4 5 5 6 6 6 6 5 3 3 4 5 5 6 7 8 8 8 10 10 10 11 11 11 11 10 10 10 10 10 10
5 5 5 5 5 5 4 5 5 5 5 5 5 5 5 5 4 4 4 4 4 4 4 4 4 4 4 4 4 4 4 4 4 4 5 6 5 2 0 0 0 -0 -0 -0 -0 -0 -0 0 0 0 1 0 0 0 1 3 4 5 5 5 5 5 3 3 4 5 5 5 6 7 8 8 9 10 10 10 11 11 11 10 10 10 10 10 11
5 5 5 5 5 5 5 5 5 5 5 5 5 5 5 4 4 4 4 4 4 4 4 4 4 4 4 4 3 4 4 4 4 4 5 5 5 2 0 0 0 -0 -0 -1 -1 -1 -1 -0 -0 0 1 0 0 0 1 1 2 3 3 4 4 4 3 2 3 4 5 5 5 6 8 8 8 9 10 10 10 10 10 10 10 10 10 10 11
5 5 5 5 5 5 5 5 5 5 5 5 5 5 4 4 4 4 4 4 4 4 4 4 4 4 4 4 3 3 3 4 4 4 4 5 4 1 0 0 0 0 -0 -1 -1 -1 -1 -1 -1 -0 0 0 -0 -0 0 1 1 1 2 2 2 3 2 2 3 3 4 5 5 6 7 7 8 9 9 10 10 10 10 10 10 10 10 10 10
5 5 5 5 5 5 5 5 5 5 5 5 5 4 4 4 4 4 4 4 4 4 4 4 4 4 4 4 3 3 3 3 4 4 4 4 3 1 -0 0 0 0 -0 -1 -1 -1 -1 -1 -1 -1 -0 -0 -0 0 0 1 1 1 1 1 2 2 2 2 2 3 3 4 5 5 6 6 7 8 9 9 10 10 10 10 10 10 10 10 10
5 5 5 5 5 5 5 5 5 5 5 5 4 4 4 4 4 4 4 4 4 4 3 3 4 4 4 4 3 3 3 3 3 3 3 4 3 1 -0 -0 0 0 0 -0 -1 -1 -1 -1 -1 -0 -0 -0 -0 0 0 1 1 0 1 1 2 2 2 2 2 2 3 3 4 5 5 5 6 7 8 9 10 10 10 10 10 10 10 10 10
4 5 5 4 5 5 5 5 5 5 5 4 4 4 4 4 4 4 4 4 4 3 3 3 3 3 4 4 3 2 2 3 3 3 3 3 3 2 -0 -0 0 1 0 0 -0 -1 -1 -1 -1 -0 -0 -0 -0 0 0 1 1 1 0 1 1 2 2 1 1 2 3 3 4 4 4 5 5 6 7 8 9 9 9 9 9 10 10 10 10
4 4 4 4 5 5 5 5 5 5 5 4 4 4 4 4 4 4 4 4 3 3 3 3 3 3 3 3 3 2 2 2 3 3 3 3 3 2 -0 -0 1 1 1 1 0 -0 -1 -1 -0 0 0 0 0 0 0 1 1 0 0 0 1 1 1 1 1 1 2 3 3 3 4 4 5 5 6 7 8 9 9 9 9 9 9 9 9
4 4 4 4 5 5 5 5 5 5 5 4 4 4 4 4 4 4 4 3 3 3 3 3 3 3 2 2 2 2 2 2 2 3 3 2 3 2 1 -0 1 1 1 1 0 0 -1 -1 -0 0 0 0 0 0 1 1 1 0 0 0 0 0 0 1 1 1 2 2 2 2 2 3 4 4 5 5 7 8 8 8 9 9 9 9 9
4 4 4 4 4 5 5 5 5 4 4 4 4 4 4 4 4 4 4 4 4 4 3 3 2 2 2 1 1 1 2 2 2 2 2 2 2 2 1 1 0 1 1 0 0 -0 -0 -0 0 0 0 0 0 0 1 1 0 0 0 -0 -0 0 1 1 1 1 2 2 2 1 2 2 3 3 4 5 6 7 7 8 8 8 8 8 8
3 3 4 4 4 5 5 4 4 4 4 4 4 4 4 4 4 4 4 4 4 4 3 2 1 1 1 1 0 0 1 1 2 2 2 2 1 1 1 1 1 0 0 0 -0 -0 -0 -0 0 1 1 0 -0 -0 -0 0 0 0 -0 -0 0 1 1 0 1 1 1 2 2 2 2 2 2 2 3 4 5 5 6 6 7 7 7 7 7
3 3 4 4 4 4 4 4 4 3 3 3 3 3 4 4 4 4 3 3 3 3 3 2 1 1 1 1 0 -0 0 1 1 2 2 1 1 1 1 1 1 1 -0 -0 -0 -0 0 1 1 1 1 0 -0 -1 -1 -0 -0 -0 0 0 0 0 0 0 0 1 1 1 1 1 1 2 1 1 1 2 3 4 4 5 6 6 6 7 7
3 4 4 4 4 3 3 3 3 3 3 3 3 3 4 4 4 3 3 2 2 2 2 1 1 1 1 1 1 0 0 1 1 2 2 1 1 1 1 1 2 1 0 0 0 1 1 1 1 1 1 -0 -1 -1 -1 -0 -0 0 0 0 0 1 1 0 0 0 1 1 1 1 1 1 1 1 1 1 2 2 3 4 5 5 5 6 6
3 4 4 3 3 2 2 2 2 3 3 3 3 3 3 3 3 3 2 2 2 2 2 1 1 1 1 1 1 1 1 1 1 1 1 1 1 1 1 1 1 2 1 1 1 1 1 2 1 1 0 -0 -1 -1 -1 -1 -0 0 0 0 0 0 0 0 0 0 0 0 0 0 0 1 1 2 1 1 1 1 2 3 3 4 4 5 5
3 3 2 2 2 2 2 2 3 3 3 3 3 2 2 2 2 2 2 2 2 2 1 1 1 1 1 1 1 1 1 1 1 1 0 -0 -0 1 1 1 1 1 2 1 1 1 1 1 1 0 0 -0 -1 -1 -1 -1 -1 -0 0 1 1 0 0 -0 -0 0 0 -0 -0 -0 -0 -0 1 2 2 2 1 1 1 1 2 2 2 3 4
2 2 2 2 1 1 1 2 2 2 2 2 2 2 2 2 2 2 2 2 2 1 1 1 1 1 1 1 1 0 1 1 1 1 1 0 -0 0 1 1 1 1 2 2 1 0 1 1 0 -0 0 -0 -0 -0 -0 -1 -1 -1 -0 0 1 0 -0 -0 -0 -0 0 0 -0 -1 -0 -0 0 1 2 2 2 1 0 0 1 1 1 2 3
2 2 2 1 1 1 2 2 2 2 1 1 2 1 1 1 2 2 2 2 1 1 1 1 1 1 1 1 1 0 0 1 1 1 0 0 -0 -0 0 1 1 1 2 2 1 0 0 1 0 -0 0 0 -0 -0 -0 -0 -0 -1 -1 -1 -0 0 0 0 0 0 0 0 -0 -0 -0 -0 -0 0 1 1 1 1 1 0 0 0 0 1 1
2 2 2 1 1 1 2 2 1 1 1 1 2 2 2 1 1 2 2 2 2 2 1 1 1 1 1 1 1 0 0 1 1 0 -0 -0 -0 -0 0 0 1 1 2 2 1 0 0 0 -0 -0 -0 -0 -1 -0 -0 -0 -0 -0 -1 -1 -1 -0 -0 -0 0 0 0 1 0 0 -0 -1 -1 -0 -0 0 0 0 1 0 -0 -0 0 0 -0
2 2 2 2 1 1 2 2 2 2 2 1 2 2 2 1 1 1 1 2 2 2 2 2 2 1 1 1 1 1 1 1 1 1 0 0 -0 -0 -0 0 0 1 2 2 1 1 0 -0 -0 -0 -0 -1 -1 -1 -1 -1 -1 -0 -0 -1 -1 -1 -1 -1 -0 0 1 1 1 1 -0 -1 -1 -0 -0 -0 -0 0 0 0 -0 -0 -0 -0 -0
2 2 2 2 2 2 2 2 2 2 2 2 2 1 1 1 1 1 1 1 1 2 2 2 2 1 1 1 1 1 1 1 1 1 1 1 0 -0 0 0 0 1 2 2 1 1 -0 -0 -1 -0 -1 -1 -1 -1 -1 -1 -1 -1 -0 -0 -1 -1 -1 -1 -1 -0 0 1 1 1 -0 -1 -0 -0 -0 -0 -0 -0 -0 -0 -0 -0 -0 -1 -1
2 2 2 2 1 2 2 2 2 2 2 2 2 2 2 1 1 1 1 1 1 2 2 1 1 1 1 1 1 1 1 1 1 1 1 1 1 0 0 0 1 1 1 1 1 0 -0 -0 -0 -0 -1 -1 -1 -1 -1 -1 -1 -1 -0 -1 -1 -1 -1 -1 -1 -1 -0 0 1 1 0 -0 -0 -0 -0 -0 -0 -1 -1 -1 -1 -1 -1 -1 -1
2 2 2 2 1 2 2 2 2 2 2 2 2 2 3 2 2 1 1 1 1 1 1 1 1 1 1 1 1 1 1 1 1 1 1 1 1 1 1 1 1 1 1 0 -0 -0 -0 -0 -0 -0 -0 -1 -1 -1 -1 -1 -1 -1 -1 -1 -1 -1 -1 -1 -1 -1 -1 -0 0 0 -0 -0 -0 -0 -0 -0 -0 -1 -1 -1 -1 -1 -1 -1 -1
2 2 2 2 2 2 2 2 2 2 2 2 2 2 2 2 2 2 2 2 1 1 1 1 1 1 1 1 1 1 1 1 1 1 1 1 1 1 1 1 1 0 0 -0 -0 -0 -0 -0 -0 -0 -1 -1 -1 -1 -1 -1 -1 -1 -1 -1 -1 -1 -1 -1 -0 -1 -1 -0 -0 -0 -0 -0 -0 -0 0 0 -0 -0 -1 -1 -0 -1 -1 -1 -1
2 2 2 2 2 2 2 2 2 2 2 2 2 2 2 2 2 2 2 2 2 2 1 1 1 1 1 1 1 1 1 1 1 1 1 1 1 2 1 0 -0 -0 -0 -0 -0 -0 -0 -1 -0 -0 -1 -1 -1 -1 -1 -1 -1 -1 -1 -1 -1 -1 -1 -0 -0 -0 -1 -1 -0 -1 -0 -0 -0 -0 0 0 0 0 -0 -1 -1 -1 -1 -1 -1
3 2 2 2 2 3 3 3 3 3 2 2 2 2 2 2 2 2 2 2 2 2 2 1 1 1 1 1 1 1 1 1 1 1 1 1 2 1 1 -0 -0 0 -0 -0 -0 -0 -0 -0 -1 -1 -1 -1 -1 -1 -1 -1 -1 -1 -1 -1 -1 -0 -0 -0 0 0 -1 -1 -1 -1 -1 -0 -0 -0 0 0 -0 0 0 -0 -1 -1 -1 -1 -2
3 3 2 2 2 3 2 2 3 2 2 2 2 2 2 2 2 2 2 2 2 2 2 2 1 1 1 1 1 1 1 1 1 1 1 1 1 1 0 -0 0 0 -0 -0 -0 -0 -0 -0 -1 -1 -1 -1 -1 -1 -1 -1 -1 -0 0 -0 -0 0 0 -0 0 0 -0 -1 -1 -1 -1 -0 -0 -0 0 0 -0 -0 -0 -0 -0 -1 -1 -1 -2
3 3 3 2 2 2 2 2 2 2 2 2 2 3 2 2 2 2 2 2 2 2 2 2 2 2 2 1 1 1 1 1 1 1 1 1 0 0 -0 0 0 -0 -0 -0 -0 -0 -0 -0 -1 -1 -1 -1 -1 -1 -1 -0 -0 0 0 0 0 0 1 1 1 1 0 -1 -1 -1 -1 -0 -0 -0 -0 0 0 -0 -0 -0 -0 -0 -1 -1 -1
3 3 3 2 2 3 3 3 2 2 2 2 3 3 2 2 2 2 2 2 2 2 2 2 2 2 2 1 1 1 1 1 1 1 0 0 0 0 0 0 0 -0 -0 -0 -0 -0 -0 -1 -1 -1 -1 -1 -1 -1 -1 -0 0 0 0 0 0 1 1 1 1 1 1 0 -0 -1 -1 -1 -1 -0 -0 -0 0 0 -0 -0 -0 -0 -0 -0 -1
3 3 2 2 2 2 3 3 3 3 3 3 3 3 2 2 2 3 3 3 2 2 2 2 2 2 2 1 1 1 1 1 1 1 1 0 0 0 0 0 -0 -0 -0 -0 -0 -0 -0 -1 -1 -1 -0 -0 -0 -0 -0 0 0 0 0 0 0 1 1 1 1 1 1 0 0 0 -0 -1 -1 -1 -0 -0 -0 -0 0 0 0 -0 -0 -0 -0
3 3 3 2 2 2 3 3 3 3 3 3 3 3 3 3 3 3 3 3 2 2 2 2 2 2 2 2 2 2 1 1 1 1 1 0 0 0 0 0 -0 -0 -0 -0 -0 -0 -0 -0 -1 -0 0 0 0 0 0 0 0 0 -0 0 0 0 0 0 1 1 1 0 0 0 0 -0 -1 -1 -0 -0 -1 -0 -0 0 0 0 0 -0 -0
3 3 3 3 2 2 3 3 3 3 3 3 3 3 3 3 3 3 2 2 2 2 2 2 2 2 2 2 2 2 2 1 1 1 1 1 1 1 0 0 -0 -0 -0 -0 -0 0 0 0 -0 -0 0 0 0 0 0 0 0 0 -0 -0 0 0 0 0 1 1 1 1 0 0 0 -0 -1 -1 -0 -0 -1 -1 -0 -0 -0 0 0 0 0
3 3 3 3 3 3 3 3 3 3 3 3 3 3 2 3 3 3 2 2 2 2 2 2 3 2 2 2 2 2 2 1 1 1 1 1 1 1 0 0 0 0 0 0 -0 -0 0 0 -0 -0 -0 0 0 -0 -0 -0 -0 -0 -0 -0 -0 0 0 0 0 1 1 1 0 0 0 0 -0 -1 -0 -0 -0 -1 -1 -0 -0 -0 -0 -0 -0
3 3 3 3 3 3 3 3 3 3 3 3 2 2 2 2 3 3 3 3 3 2 2 2 3 2 2 2 2 2 2 2 2 2 1 1 1 1 1 1 1 1 1 0 -0 0 0 0 -0 -0 0 -0 -0 -0 -0 -0 -0 -0 -0 -0 -0 -0 -0 0 0 0 1 1 0 -0 -0 0 0 -0 -0 -0 -0 -1 -1 -0 -0 -1 -1 -1 -0
3 3 4 4 3 3 3 3 3 3 3 2 2 2 2 2 3 3 3 3 3 3 3 3 3 2 2 2 2 2 2 2 2 2 2 1 1 1 1 1 1 1 1 1 1 1 1 1 0 0 -0 -0 -0 -0 -0 -0 -0 -0 -0 -0 -0 -0 -0 -0 0 0 0 0 0 -0 -0 -0 -0 0 -0 -0 -0 -0 -0 -0 -0 -1 -1 -1 -1
3 4 4 4 4 4 4 3 3 3 3 3 3 3 3 3 3 3 3 3 3 3 3 3 3 3 2 2 2 2 2 2 2 2 2 2 1 1 1 1 1 1 1 1 1 1 2 1 1 1 0 0 0 -0 -0 -1 -1 -0 -0 -0 -0 -0 -0 -0 -0 0 0 -0 0 0 -0 -1 -1 -0 -0 -1 -1 -0 -0 -0 -0 -0 -1 -1 -1
4 4 4 4 4 4 4 3 3 3 3 3 3 3 3 3 3 3 3 3 3 3 3 3 3 3 3 3 2 2 2 2 2 2 2 2 2 1 1 1 1 1 1 1 1 1 1 2 1 1 1 1 1 1 0 -1 -1 -1 -1 -1 -1 -0 -0 -0 -0 -0 -0 -0 -0 -0 -0 -1 -1 -1 -0 -0 -1 -1 -0 -0 -1 -1 -1 -1 -1
4 4 4 4 4 4 4 3 3 3 3 3 3 3 3 3 3 3 3 3 3 3 3 3 3 3 3 3 3 3 2 2 2 2 2 2 2 1 1 1 2 2 2 2 2 1 1 1 1 1 1 1 1 1 1 0 -1 -1 -1 -1 -1 -0 -0 -0 -0 -0 -0 -0 -0 -0 -0 -1 -1 -1 -1 -1 -1 -1 -1 -1 -1 -1 -1 -1 -1
4 4 4 4 4 4 4 4 3 3 3 3 3 3 3 3 3 3 3 3 3 3 3 3 3 3 3 3 3 3 2 2 2 2 2 2 2 1 1 1 2 2 2 1 1 1 1 1 1 1 1 1 1 1 1 1 0 -0 -1 -1 -0 -0 -0 -1 -1 -1 -1 -1 -0 -1 -1 -1 -1 -1 -1 -1 -1 -1 -1 -1 -1 -1 -1 -1 -1
4 4 4 4 4 4 4 4 4 4 3 3 3 3 3 3 3 3 3 3 3 3 3 3 3 3 3 3 3 3 3 2 2 2 2 2 2 2 1 1 1 2 2 1 1 1 1 1 1 1 1 1 1 1 1 1 1 0 0 0 0 0 -0 -1 -1 -1 -1 -1 -1 -1 -1 -1 -1 -1 -1 -1 -1 -1 -1 -1 -1 -1 -2 -2 -1
3 3 3 4 4 4 4 4 4 4 3 3 3 3 3 3 3 3 3 3 3 3 3 3 3 3 3 3 3 3 3 3 2 2 2 2 2 2 1 1 1 2 2 1 1 1 1 1 1 1 1 1 1 1 1 1 1 1 0 0 0 -0 -0 -0 -1 -1 -1 -1 -1 -1 -1 -1 -1 -1 -1 -1 -1 -1 -1 -1 -1 -1 -2 -2 -2
Height
1543 1544 1544 1545 1545 1546 1546 1547 1547 1547 1547 1546 1546 1545 1546 1545 1545 1544 1544 1544 1543 1543 1542 1542 1542 1541 1540 1539 1538 1537 1535 1534 1532 1530 1529 1527 1525 1524 1522 1520 1519 1517 1516 1515 1513 1512 1510 1509 1508 1506 1504 1502 1500 1498 1496 1495 1494 1492 1490 1488 1486 1484 1483 1482 1478 1474 1473 1474 1473 1472 1472 1472 1471 1471 1471 1470 1470 1471 1471 1472 1474 1475 1475 1476 1478
1543 1543 1544 1545 1545 1546 1547 1547 1547 1547 1547 1546 1546 1545 1545 1545 1545 1544 1544 1543 1543 1543 1543 1542 1542 1541 1540 1539 1538 1537 1535 1534 1532 1530 1528 1527 1525 1523 1521 1520 1518 1517 1516 1515 1513 1512 1510 1508 1507 1505 1503 1500 1499 1497 1495 1493 1491 1489 1487 1485 1483 1481 1481 1479 1476 1472 1469 1469 1469 1468 1468 1468 1467 1467 1467 1466 1466 1466 1466 1467 1468 1470 1471 1472 1473
1543 1543 1544 1545 1545 1546 1547 1547 1547 1548 1547 1546 1546 1545 1545 1545 1545 1544 1544 1544 1543 1543 1543 1542 1542 1541 1540 1539 1538 1537 1535 1534 1532 1530 1528 1526 1524 1522 1521 1519 1517 1516 1516 1514 1513 1511 1509 1507 1505 1503 1501 1498 1496 1495 1493 1491 1489 1486 1485 1483 1481 1478 1478 1477 1474 1471 1467 1465 1465 1464 1463 1463 1462 1462 1463 1462 1462 1462 1462 1462 1464 1465 1466 1467 1468
1543 1543 1544 1545 1545 1546 1546 1547 1548 1548 1547 1546 1546 1545 1545 1545 1545 1544 1544 1544 1543 1543 1543 1542 1542 1541 1540 1540 1538 1537 1535 1533 1531 1529 1527 1525 1524 1522 1520 1519 1518 1517 1515 1514 1512 1510 1508 1506 1504 1502 1499 1497 1495 1492 1490 1488 1486 1484 1481 1480 1478 1476 1474 1473 1471 1469 1465 1462 1461 1461 1460 1459 1458 1458 1459 1458 1458 1458 1458 1458 1459 1460 1462 1463 1464
1544 1544 1544 1545 1545 1546 1546 1547 1548 1547 1547 1546 1546 1546 1546 1545 1545 1545 1544 1544 1543 1543 1543 1542 1542 1541 1541 1540 1538 1537 1535 1533 1531 1529 1527 1525 1523 1522 1520 1519 1518 1517 1515 1514 1512 1510 1507 1505 1503 1500 1498 1496 1493 1490 1488 1485 1483 1481 1478 1476 1474 1472 1470 1469 1467 1466 1463 1459 1457 1457 1457 1456 1454 1453 1454 1454 1453 1453 1454 1454 1455 1456 1458 1459 1460
1544 1544 1545 1545 1546 1546 1546 1547 1547 1547 1547 1546 1546 1546 1546 1546 1546 1545 1545 1544 1544 1543 1543 1543 1542 1542 1541 1540 1539 1537 1535 1533 1531 1529 1527 1525 1523 1522 1521 1519 1518 1517 1515 1513 1511 1509 1507 1504 1502 1500 1497 1495 1492 1489 1486 1483 1481 1478 1475 1473 1471 1468 1466 1465 1463 1462 1460 1457 1454 1453 1453 1452 1451 1449 1449 1450 1450 1450 1450 1451 1452 1452 1454 1455 1456
1544 1545 1545 1546 1546 1546 1547 1547 1547 1547 1547 1547 1547 1547 1547 1547 1546 1546 1546 1545 1544 1544 1544 1543 1543 1542 1541 1540 1539 1537 1535 1533 1531 1529 1527 1525 1523 1522 1521 1520 1518 1516 1515 1513 1511 1508 1506 1504 1501 1499 1496 1494 1491 1488 1485 1482 1479 1476 1473 1470 1467 1464 1462 1460 1459 1457 1456 1453 1451 1449 1448 1448 1447 1446 1445 1446 1446 1446 1447 1447 1448 1448 1450 1451 1452
1544 1545 1545 1546 1546 1546 1546 1547 1547 1547 1547 1547 1547 1547 1547 1547 1547 1547 1546 1546 1545 1545 1544 1544 1543 1543 1542 1540 1539 1537 1535 1533 1530 1529 1527 1525 1523 1522 1521 1520 1518 1516 1514 1512 1510 1507 1505 1502 1500 1498 1495 1493 1490 1487 1484 1481 1477 1474 1472 1468 1464 1461 1458 1456 1455 1453 1451 1449 1447 1445 1444 1444 1443 1442 1442 1442 1441 1441 1442 1443 1443 1444 1446 1448 1449
1544 1545 1545 1545 1546 1546 1547 1547 1547 1547 1547 1548 1548 1548 1548 1548 1548 1548 1548 1547 1546 1546 1545 1545 1544 1543 1542 1541 1539 1537 1535 1532 1530 1529 1527 1525 1523 1523 1522 1520 1518 1516 1514 1511 1509 1507 1504 1501 1499 1497 1494 1492 1489 1486 1484 1481 1477 1473 1469 1466 1462 1459 1455 1453 1451 1449 1447 1444 1442 1441 1440 1439 1439 1438 1437 1437 1437 1437 1438 1439 1439 1440 1442 1443 1445
1544 1545 1545 1545 1546 1546 1547 1547 1547 1548 1548 1548 1548 1548 1548 1548 1549 1549 1549 1548 1548 1547 1546 1546 1545 1544 1543 1541 1540 1538 1535 1534 1532 1531 1528 1526 1524 1523 1522 1520 1519 1517 1514 1511 1508 1506 1503 1501 1498 1495 1493 1490 1487 1484 1481 1479 1476 1472 1468 1464 1460 1457 1453 1450 1447 1445 1443 1440 1438 1437 1435 1434 1435 1435 1433 1433 1434 1433 1434 1435 1435 1436 1438 1439 1439
1543 1544 1545 1545 1546 1547 1547 1548 1548 1548 1549 1549 1549 1549 1549 1549 1550 1550 1550 1549 1549 1548 1547 1546 1545 1544 1543 1542 1540 1539 1537 1536 1534 1532 1530 1527 1524 1523 1522 1521 1519 1517 1514 1511 1509 1506 1503 1500 1497 1494 1491 1488 1484 1481 1478 1476 1472 1469 1466 1463 1459 1455 1452 1449 1445 1442 1440 1437 1434 1433 1431 1429 1430 1431 1430 1429 1430 1430 1430 1431 1431 1432 1433 1433 1434
1543 1544 1545 1546 1546 1547 1548 1548 1549 1549 1549 1549 1549 1550 1550 1551 1551 1551 1551 1550 1550 1549 1548 1547 1546 1545 1544 1543 1542 1540 1539 1537 1535 1533 1531 1528 1525 1523 1523 1521 1519 1517 1514 1512 1510 1507 1503 1500 1497 1494 1490 1487 1483 1479 1475 1472 1469 1465 1462 1459 1456 1453 1450 1448 1444 1440 1437 1433 1430 1428 1428 1426 1426 1427 1426 1426 1426 1426 1426 1426 1427 1428 1428 1428 1429
1543 1544 1544 1545 1546 1547 1548 1549 1549 1549 1549 1550 1550 1551 1552 1552 1552 1552 1552 1551 1551 1550 1549 1548 1547 1546 1545 1544 1543 1542 1540 1538 1536 1534 1531 1528 1525 1523 1523 1522 1519 1518 1515 1513 1511 1507 1504 1500 1496 1493 1490 1486 1482 1478 1473 1469 1465 1462 1458 1455 1452 1449 1447 1445 1442 1438 1434 1430 1426 1423 1423 1423 1422 1422 1423 1423 1422 1422 1422 1422 1423 1424 1424 1424 1425
1542 1543 1544 1545 1546 1547 1548 1549 1549 1550 1550 1550 1551 1552 1553 1553 1553 1553 1553 1552 1552 1551 1550 1549 1548 1547 1546 1545 1544 1542 1540 1539 1537 1535 1532 1529 1525 1524 1524 1523 1521 1519 1516 1513 1511 1508 1505 1501 1497 1493 1490 1486 1482 1477 1473 1468 1464 1460 1456 1453 1449 1446 1443 1441 1437 1434 1431 1428 1424 1420 1419 1419 1418 1417 1418 1419 1418 1418 1418 1419 1419 1420 1420 1421 1422
1542 1543 1544 1545 1545 1546 1547 1548 1549 1550 1551 1552 1553 1554 1554 1554 1554 1554 1553 1553 1552 1552 1551 1550 1549 1548 1547 1546 1545 1543 1541 1540 1538 1535 1533 1529 1526 1525 1525 1524 1522 1520 1517 1514 1512 1509 1506 1502 1498 1495 1491 1487 1483 1478 1473 1468 1464 1460 1456 1451 1448 1444 1441 1438 1434 1430 1427 1424 1421 1417 1415 1415 1414 1412 1413 1413 1414 1414 1414 1415 1416 1417 1417 1418 1420
1543 1543 1544 1545 1545 1546 1547 1548 1549 1550 1552 1553 1554 1555 1555 1555 1555 1554 1553 1553 1553 1552 1552 1551 1550 1549 1548 1546 1545 1544 1542 1540 1538 1536 1533 1530 1527 1526 1526 1525 1523 1521 1518 1516 1514 1511 1507 1504 1500 1496 1491 1488 1484 1479 1474 1469 1464 1460 1455 1451 1447 1443 1439 1436 1432 1429 1425 1421 1418 1414 1412 1410 1409 1409 1408 1408 1409 1410 1410 1411 1412 1413 1415 1415 1416
1543 1544 1544 1545 1545 1546 1546 1548 1550 1551 1553 1554 1555 1556 1556 1556 1555 1554 1554 1554 1553 1553 1553 1552 1551 1550 1548 1547 1545 1544 1543 1541 1539 1536 1534 1531 1528 1527 1526 1525 1524 1522 1520 1518 1516 1512 1509 1505 1501 1497 1493 1489 1484 1479 1474 1470 1465 1460 1456 1451 1447 1442 1438 1434 1430 1427 1424 1419 1415 1412 1409 1407 1405 1405 1404 1404 1405 1405 1406 1407 1409 1410 1411 1411 1412
1544 1544 1545 1545 1545 1546 1547 1549 1551 1552 1554 1555 1556 1557 1556 1556 1555 1554 1554 1554 1554 1554 1553 1553 1551 1550 1549 1547 1546 1545 1543 1542 1540 1537 1535 1532 1529 1527 1527 1526 1525 1523 1521 1520 1517 1514 1511 1507 1503 1499 1494 1490 1485 1480 1475 1470 1465 1461 1456 1452 1448 1443 1438 1433 1429 1426 1422 1417 1413 1410 1408 1405 1403 1401 1401 1400 1400 1400 1402 1404 1405 1407 1407 1408 1409
1544 1545 1545 1546 1546 1547 1548 1550 1552 1553 1555 1556 1557 1557 1556 1556 1555 1555 1555 1555 1555 1555 1554 1554 1552 1551 1550 1548 1547 1546 1544 1542 1540 1538 1535 1533 1530 1528 1527 1527 1526 1525 1523 1521 1519 1516 1513 1509 1505 1501 1496 1492 1487 1482 1476 1472 1467 1462 1458 1454 1449 1445 1440 1436 1431 1426 1421 1416 1412 1409 1407 1404 1401 1399 1399 1398 1397 1397 1398 1400 1402 1403 1404 1405 1407
1545 1546 1546 1546 1547 1548 1550 1551 1553 1554 1556 1556 1557 1557 1556 1556 1556 1555 1555 1556 1556 1556 1555 1554 1553 1552 1551 1549 1548 1546 1545 1543 1541 1538 1536 1534 1531 1529 1528 1527 1527 1527 1525 1523 1520 1517 1514 1511 1507 1502 1498 1493 1488 1484 1479 1474 1469 1465 1460 1456 1451 1448 1444 1439 1434 1428 1423 1418 1414 1410 1406 1403 1401 1399 1399 1397 1396 1395 1396 1398 1399 1400 1402 1403 1404
1545 1546 1547 1548 1549 1550 1551 1553 1554 1555 1556 1557 1557 1556 1556 1557 1556 1556 1557 1557 1557 1557 1556 1555 1554 1553 1552 1551 1549 1547 1546 1544 1542 1540 1537 1535 1533 1531 1529 1528 1528 1528 1527 1524 1521 1518 1515 1512 1508 1504 1499 1495 1490 1486 1481 1476 1472 1467 1463 1459 1455 1451 1447 1441 1436 1431 1426 1421 1417 1412 1407 1403 1401 1401 1399 1396 1394 1394 1395 1396 1397 1399 1400 1401 1402
1546 1547 1548 1549 1550 1551 1553 1554 1555 1556 1557 1557 1557 1557 1557 1557 1557 1558 1558 1558 1558 1558 1557 1556 1555 1554 1553 1552 1550 1549 1547 1545 1543 1541 1538 1536 1534 1532 1531 1530 1529 1529 1528 1525 1522 1519 1516 1513 1510 1506 1501 1496 1492 1488 1484 1479 1474 1470 1466 1462 1458 1453 1448 1443 1437 1432 1427 1422 1418 1414 1410 1405 1403 1403 1400 1396 1395 1396 1396 1396 1397 1398 1399 1400 1401
1547 1548 1549 1550 1551 1553 1554 1555 1556 1557 1557 1557 1558 1558 1558 1559 1559 1559 1560 1560 1559 1559 1558 1557 1557 1556 1555 1554 1552 1550 1548 1546 1544 1542 1540 1538 1537 1535 1534 1532 1530 1529 1528 1526 1523 1521 1518 1515 1512 1507 1503 1498 1495 1491 1487 1482 1477 1474 1470 1465 1460 1454 1449 1445 1439 1433 1429 1425 1421 1417 1413 1410 1408 1406 1402 1400 1399 1399 1398 1397 1397 1398 1398 1399 1400
1548 1549 1550 1551 1553 1554 1555 1556 1557 1557 1558 1558 1559 1559 1559 1560 1560 1561 1561 1561 1561 1560 1559 1559 1558 1557 1556 1555 1553 1551 1550 1548 1546 1544 1542 1540 1539 1538 1536 1534 1532 1530 1529 1527 1525 1523 1520 1516 1513 1508 1504 1500 1497 1494 1490 1485 1481 1477 1473 1468 1463 1457 1451 1446 1441 1436 1431 1428 1424 1421 1418 1416 1414 1410 1406 1404 1402 1401 1400 1399 1399 1399 1400 1400 1400
1549 1550 1551 1553 1554 1556 1557 1557 1558 1558 1559 1560 1560 1560 1561 1562 1563 1563 1563 1563 1562 1562 1561 1560 1559 1558 1557 1555 1554 1552 1550 1549 1547 1545 1543 1542 1541 1540 1538 1536 1534 1532 1530 1528 1526 1523 1521 1518 1514 1510 1506 1502 1499 1497 1493 1488 1484 1480 1476 1471 1466 1460 1454 1450 1446 1441 1436 1432 1429 1426 1423 1421 1419 1415 1411 1407 1404 1402 1402 1401 1401 1402 1402 1402 1402
1550 1551 1553 1554 1555 1557 1558 1558 1559 1559 1560 1560 1561 1562 1563 1564 1564 1565 1565 1564 1563 1563 1562 1561 1560 1559 1557 1556 1555 1553 1551 1550 1548 1547 1545 1544 1543 1541 1539 1537 1535 1533 1531 1529 1527 1524 1522 1518 1515 1512 1508 1505 1502 1499 1496 1492 1488 1483 1479 1474 1469 1464 1460 1455 1451 1447 1442 1438 1435 1432 1429 1426 1423 1419 1415 1411 1407 1405 1405 1405 1405 1404 1404 1404 1404
1551 1552 1553 1555 1556 1558 1558 1559 1560 1560 1561 1562 1563 1564 1564 1565 1565 1565 1566 1565 1564 1563 1562 1561 1560 1559 1558 1557 1556 1554 1553 1551 1549 1548 1546 1545 1544 1543 1540 1538 1536 1534 1532 1530 1527 1525 1523 1520 1517 1514 1511 1507 1504 1501 1498 1495 1491 1487 1482 1478 1474 1470 1466 1462 1458 1454 1450 1445 1442 1439 1436 1431 1426 1421 1418 1415 1413 1410 1410 1409 1408 1407 1407 1407 1406
1551 1553 1554 1556 1557 1558 1559 1560 1561 1561 1562 1564 1565 1565 1566 1566 1566 1565 1565 1565 1564 1564 1563 1561 1560 1559 1558 1557 1556 1555 1554 1552 1550 1548 1547 1545 1544 1543 1541 1539 1537 1536 1534 1530 1528 1527 1525 1521 1518 1516 1512 1509 1506 1503 1500 1497 1494 1491 1486 1482 1479 1475 1471 1467 1463 1459 1456 1452 1448 1445 1441 1436 1431 1427 1424 1421 1419 1417 1415 1413 1412 1412 1411 1410 1409
1552 1554 1555 1556 1558 1559 1559 1561 1562 1563 1563 1564 1565 1565 1566 1566 1566 1566 1565 1564 1563 1563 1562 1561 1560 1559 1558 1557 1557 1556 1555 1553 1551 1549 1548 1546 1545 1544 1542 1540 1539 1537 1535 1532 1529 1528 1526 1523 1520 1517 1514 1511 1508 1505 1502 1499 1497 1494 1491 1487 1483 1479 1475 1471 1467 1464 1461 1457 1453 1450 1446 1442 1438 1435 1431 1428 1425 1423 1421 1419 1418 1418 1416 1415 1415
1553 1554 1556 1557 1558 1559 1561 1562 1563 1564 1565 1565 1565 1565 1566 1566 1566 1566 1565 1564 1564 1563 1562 1561 1560 1559 1559 1558 1557 1556 1555 1553 1552 1551 1549 1548 1547 1545 1544 1542 1540 1539 1536 1533 1531 1529 1527 1524 1522 1519 1516 1514 1510 1508 1505 1502 1499 1497 1494 1491 1487 1483 1479 1476 1473 1470 1466 1462 1459 1455 1452 1449 1446 1442 1439 1436 1433 1431 1428 1426 1425 1423 1421 1421 1420
1553 1555 1556 1558 1559 1560 1562 1563 1564 1565 1566 1566 1567 1567 1567 1567 1566 1566 1566 1565 1564 1563 1562 1561 1560 1559 1559 1558 1557 1557 1556 1554 1553 1552 1550 1549 1548 1546 1545 1543 1542 1540 1537 1534 1532 1530 1528 1526 1524 1521 1519 1516 1513 1510 1508 1506 1503 1500 1497 1494 1491 1488 1484 1481 1478 1475 1471 1468 1465 1461 1457 1455 1452 1449 1446 1443 1440 1438 1435 1432 1430 1428 1427 1427 1426
1554 1555 1557 1558 1559 1560 1562 1563 1564 1565 1566 1567 1568 1568 1568 1568 1567 1566 1566 1565 1564 1564 1563 1562 1561 1560 1560 1559 1558 1558 1557 1555 1554 1553 1551 1550 1548 1547 1546 1544 1543 1540 1538 1535 1534 1532 1530 1528 1526 1524 1521 1519 1516 1513 1511 1509 1506 1503 1501 1498 1495 1492 1489 1485 1482 1479 1476 1472 1469 1466 1462 1460 1457 1455 1452 1450 1447 1444 1441 1439 1437 1435 1434 1433 1431
1554 1555 1557 1557 1559 1561 1562 1563 1564 1566 1566 1567 1568 1568 1569 1569 1568 1567 1566 1565 1565 1564 1563 1563 1562 1561 1560 1560 1559 1558 1557 1556 1555 1554 1552 1551 1549 1548 1547 1545 1543 1541 1538 1537 1536 1534 1532 1530 1528 1526 1524 1521 1519 1516 1514 1511 1509 1506 1504 1501 1498 1496 1493 1490 1486 1483 1480 1476 1473 1470 1467 1465 1462 1460 1458 1456 1453 1451 1449 1447 1445 1443 1441 1439 1438
1554 1556 1557 1558 1559 1561 1562 1564 1565 1566 1566 1567 1568 1568 1568 1568 1568 1568 1567 1566 1565 1564 1564 1563 1563 1562 1561 1560 1560 1559 1558 1557 1556 1555 1553 1552 1550 1549 1547 1545 1543 1542 1541 1539 1538 1536 1534 1532 1530 1528 1526 1523 1521 1518 1516 1514 1511 1509 1506 1504 1502 1499 1496 1493 1489 1486 1484 1481 1478 1475 1472 1470 1468 1466 1464 1462 1460 1458 1456 1455 1454 1451 1449 1447 1445
1555 1555 1556 1558 1560 1562 1563 1564 1565 1565 1566 1567 1567 1567 1567 1567 1567 1567 1567 1567 1567 1566 1565 1564 1563 1562 1562 1561 1560 1559 1558 1557 1556 1555 1554 1553 1552 1550 1548 1547 1546 1545 1543 1541 1539 1538 1536 1534 1532 1530 1528 1526 1523 1521 1519 1516 1514 1511 1509 1507 1504 1501 1498 1496 1492 1490 1488 1486 1483 1480 1478 1476 1473 1471 1470 1468 1467 1465 1463 1461 1460 1458 1457 1454 1452
1555 1556 1556 1558 1560 1562 1563 1564 1565 1565 1566 1566 1566 1567 1567 1567 1567 1567 1567 1567 1567 1567 1567 1566 1564 1563 1562 1561 1561 1560 1559 1558 1557 1556 1554 1554 1552 1550 1549 1549 1547 1546 1544 1543 1541 1539 1537 1536 1534 1532 1530 1528 1525 1523 1521 1519 1516 1514 1511 1509 1507 1503 1500 1498 1496 1492 1491 1490 1487 1485 1483 1481 1479 1477 1475 1473 1472 1470 1469 1467 1466 1464 1463 1461 1459
1555 1556 1557 1558 1560 1561 1562 1563 1564 1564 1564 1565 1566 1566 1566 1566 1566 1566 1567 1567 1566 1566 1567 1566 1565 1564 1563 1562 1561 1560 1559 1558 1557 1556 1555 1554 1552 1551 1551 1550 1548 1547 1546 1544 1542 1541 1539 1537 1535 1533 1531 1529 1527 1525 1523 1521 1518 1516 1513 1511 1509 1506 1503 1501 1499 1496 1493 1492 1490 1488 1487 1485 1483 1482 1480 1478 1476 1474 1473 1472 1470 1469 1468 1467 1465
1555 1556 1557 1558 1559 1561 1562 1563 1563 1563 1563 1564 1565 1566 1566 1566 1566 1566 1566 1566 1566 1566 1566 1566 1565 1565 1564 1563 1561 1560 1559 1558 1557 1556 1555 1554 1553 1552 1552 1550 1549 1548 1546 1545 1543 1541 1540 1539 1536 1534 1533 1531 1529 1527 1525 1522 1520 1518 1515 1513 1511 1509 1506 1504 1502 1499 1497 1495 1493 1491 1490 1488 1487 1486 1484 1483 1481 1480 1478 1477 1475 1474 1473 1472 1471
1555 1556 1557 1558 1559 1560 1562 1562 1562 1563 1563 1564 1565 1565 1565 1565 1565 1566 1566 1566 1566 1566 1566 1566 1565 1565 1565 1564 1562 1561 1560 1559 1559 1558 1557 1555 1554 1553 1552 1551 1550 1548 1547 1545 1544 1542 1541 1540 1538 1535 1534 1532 1530 1528 1526 1524 1522 1519 1517 1515 1513 1511 1509 1507 1504 1502 1500 1498 1496 1495 1493 1492 1491 1489 1488 1487 1486 1485 1483 1482 1481 1480 1479 1478 1477
1554 1555 1556 1557 1558 1560 1561 1561 1562 1562 1563 1563 1564 1564 1564 1564 1565 1565 1566 1566 1565 1565 1565 1565 1565 1564 1563 1563 1562 1561 1560 1560 1560 1558 1557 1555 1554 1553 1552 1551 1550 1548 1547 1546 1544 1543 1542 1540 1538 1536 1535 1533 1531 1529 1527 1525 1523 1521 1519 1517 1515 1513 1511 1509 1507 1505 1503 1501 1499 1498 1496 1495 1494 1492 1491 1490 1489 1488 1487 1486 1485 1484 1483 1482 1482
1554 1555 1555 1556 1557 1559 1560 1560 1561 1562 1562 1563 1563 1563 1564 1564 1564 1564 1565 1565 1565 1565 1564 1564 1564 1564 1562 1561 1560 1559 1559 1559 1559 1558 1557 1555 1554 1553 1552 1551 1550 1548 1547 1546 1545 1543 1542 1541 1539 1537 1535 1534 1532 1530 1528 1527 1525 1523 1521 1519 1517 1515 1513 1511 1509 1507 1505 1504 1502 1501 1499 1497 1496 1495 1494 1493 1492 1491 1490 1489 1489 1488 1487 1486 1485
1553 1554 1555 1556 1557 1558 1559 1559 1560 1560 1561 1561 1562 1562 1563 1563 1563 1563 1563 1563 1564 1564 1563 1563 1563 1562 1561 1560 1559 1558 1558 1558 1558 1557 1556 1555 1554 1553 1552 1551 1550 1548 1547 1546 1545 1543 1542 1540 1539 1538 1536 1534 1533 1531 1529 1528 1526 1524 1523 1521 1519 1517 1515 1513 1511 1509 1508 1506 1505 1503 1501 1500 1499 1498 1496 1495 1494 1493 1492 1491 1491 1491 1490 1489 1489
1552 1553 1554 1555 1556 1556 1557 1558 1559 1559 1560 1560 1561 1561 1561 1562 1562 1562 1562 1562 1562 1562 1562 1562 1562 1562 1560 1559 1558 1557 1557 1557 1557 1556 1555 1554 1554 1552 1551 1550 1549 1548 1546 1545 1544 1543 1542 1540 1539 1538 1536 1535 1533 1532 1530 1529 1527 1525 1524 1522 1520 1519 1517 1515 1513 1511 1510 1508 1506 1505 1504 1502 1501 1500 1499 1497 1496 1496 1494 1493 1493 1493 1492 1492 1491
1551 1552 1553 1554 1555 1556 1556 1557 1558 1558 1559 1559 1559 1559 1560 1560 1561 1561 1561 1561 1561 1561 1561 1561 1561 1560 1560 1558 1557 1557 1556 1556 1556 1555 1554 1553 1552 1551 1550 1550 1548 1547 1546 1545 1544 1542 1541 1540 1539 1538 1536 1535 1533 1532 1531 1529 1528 1526 1525 1523 1522 1520 1518 1517 1515 1513 1511 1510 1508 1507 1506 1504 1503 1502 1501 1499 1498 1497 1496 1495 1494 1494 1494 1493 1493
1550 1551 1552 1553 1554 1555 1555 1555 1556 1557 1557 1557 1558 1558 1558 1559 1559 1560 1560 1560 1560 1560 1559 1559 1559 1559 1558 1558 1557 1556 1556 1555 1555 1554 1553 1552 1551 1550 1549 1548 1547 1546 1545 1544 1543 1541 1540 1539 1538 1537 1536 1534 1533 1532 1531 1529 1528 1527 1525 1524 1522 1521 1519 1518 1516 1514 1513 1511 1510 1508 1507 1506 1504 1503 1502 1501 1500 1499 1498 1497 1496 1495 1495 1495 1494
1549 1550 1551 1552 1553 1553 1554 1554 1555 1555 1556 1556 1557 1557 1558 1558 1558 1558 1558 1558 1558 1558 1558 1558 1557 1557 1556 1556 1556 1555 1555 1554 1553 1552 1551 1551 1550 1549 1548 1547 1546 1545 1544 1542 1541 1540 1539 1538 1537 1536 1535 1534 1532 1531 1530 1529 1528 1527 1525 1524 1523 1521 1520 1518 1517 1515 1514 1512 1511 1510 1508 1507 1506 1505 1503 1502 1501 1500 1499 1498 1497 1497 1496 1496 1495
1548 1549 1550 1551 1551 1552 1553 1553 1553 1554 1554 1555 1555 1556 1556 1556 1557 1557 1557 1557 1556 1556 1556 1556 1556 1555 1555 1554 1554 1553 1553 1552 1551 1551 1550 1549 1548 1547 1546 1545 1544 1543 1542 1541 1540 1539 1538 1537 1536 1535 1534 1533 1531 1530 1530 1529 1528 1526 1525 1524 1523 1521 1520 1519 1517 1516 1514 1513 1512 1511 1509 1508 1507 1506 1504 1503 1502 1501 1500 1499 1498 1498 1497 1497 1496
1547 1548 1548 1549 1550 1551 1551 1552 1552 1552 1553 1553 1554 1554 1554 1555 1555 1555 1555 1555 1554 1554 1554 1554 1554 1553 1553 1552 1552 1551 1551 1550 1549 1549 1548 1547 1546 1545 1544 1543 1542 1541 1540 1539 1538 1537 1536 1535 1534 1533 1532 1531 1530 1529 1528 1527 1527 1526 1524 1523 1522 1521 1520 1519 1517 1516 1515 1514 1512 1511 1510 1509 1508 1506 1505 1504 1503 1502 1501 1500 1499 1498 1498 1497 1496
1545 1546 1547 1548 1548 1549 1550 1550 1550 1550 1551 1551 1552 1552 1552 1553 1553 1553 1553 1553 1553 1552 1552 1552 1551 1551 1551 1550 1550 1549 1548 1548 1547 1547 1546 1545 1544 1543 1542 1541 1540 1539 1538 1537 1536 1535 1534 1533 1532 1531 1530 1529 1529 1528 1527 1526 1525 1524 1523 1522 1521 1520 1519 1518 1517 1516 1515 1513 1512 1511 1510 1509 1508 1507 1506 1504 1503 1502 1501 1500 1499 1498 1498 1497 1496
1543 1544 1545 1546 1547 1547 1548 1548 1549 1549 1549 1550 1550 1550 1550 1551 1551 1551 1551 1550 1550 1550 1550 1549 1549 1549 1548 1548 1547 1547 1546 1546 1545 1544 1544 1543 1542 1541 1540 1539 1538 1537 1536 1535 1534 1533 1532 1531 1530 1529 1528 1527 1527 1526 1525 1524 1523 1522 1521 1520 1519 1518 1517 1517 1515 1515 1514 1513 1512 1511 1510 1509 1508 1507 1506 1505 1504 1503 1502 1501 1499 1499 1498 1498 1497
1541 1542 1543 1544 1545 1545 1546 1546 1546 1547 1547 1547 1548 1548 1548 1548 1548 1548 1548 1548 1548 1548 1547 1547 1547 1546 1546 1545 1545 1544 1544 1543 1543 1542 1542 1541 1540 1539 1538 1537 1535 1534 1534 1533 1532 1531 1530 1529 1528 1527 1526 1525 1524 1523 1522 1522 1521 1520 1519 1518 1517 1516 1516 1515 1514 1513 1512 1511 1511 1510 1509 1508 1507 1506 1505 1504 1503 1502 1501 1501 1499 1498 1498 1498 1497
Wind_Speed
4 7 10 12 13 13 13 13 13 12 11 11 10 10 10 10 10 11 11 11 12 13 13 15 15 16 16 17 18 18 19 19 19 19 19 19 19 19 20 20 19 17 15 14 15 16 16 16 15 14 16 18 19 20 19 19 19 20 22 24 26 26 25 23 26 31 32 29 29 31 31 29 29 28 27 29 30 31 32 34 36 37 37 39 41
7 9 11 12 12 12 13 13 12 11 10 11 11 11 11 11 12 12 12 13 14 14 15 16 16 17 18 19 19 20 20 20 20 20 19 20 20 21 21 20 19 17 14 14 15 15 15 15 15 17 20 21 22 21 21 21 22 23 24 25 28 29 28 26 28 30 32 31 29 29 30 31 30 28 27 27 28 29 31 34 36 37 37 37 39
9 11 11 11 11 11 12 12 12 11 11 11 11 12 12 12 13 13 14 15 15 15 16 17 18 19 20 20 20 21 21 21 22 22 22 22 21 21 21 20 19 16 14 15 16 16 16 18 18 19 22 23 23 23 23 23 23 24 25 25 27 29 29 30 31 31 32 32 29 28 29 30 30 29 27 27 27 29 31 33 35 37 36 34 36
10 10 11 11 11 12 12 12 12 12 12 13 13 13 13 14 14 14 15 16 16 17 18 19 19 20 20 21 21 21 22 23 23 23 24 23 21 20 20 18 16 15 15 15 16 16 17 18 19 20 21 22 23 24 25 26 26 25 25 25 26 28 29 30 32 33 33 33 31 29 28 29 31 29 27 27 27 29 30 31 33 36 36 34 33
11 10 10 11 11 13 13 13 13 13 14 14 14 14 15 15 15 16 16 17 17 18 19 19 20 21 21 21 22 23 23 24 24 24 24 24 21 19 18 16 14 14 15 15 16 16 16 17 17 18 20 22 23 25 26 28 28 28 28 28 28 28 28 29 30 32 34 36 36 32 28 27 29 30 27 25 26 27 29 30 32 34 35 34 34
10 10 10 11 12 14 15 15 15 15 15 15 15 15 16 16 16 17 17 17 19 19 20 20 21 22 22 22 22 24 24 25 26 25 25 25 21 17 16 15 14 15 15 16 16 16 16 16 16 17 20 23 24 26 27 28 29 30 31 31 30 30 30 30 29 30 32 36 38 36 30 26 27 29 27 25 25 26 28 30 32 33 33 33 33
10 10 11 13 14 15 16 16 15 15 16 16 16 16 16 16 17 18 18 19 20 21 21 22 23 23 23 23 23 24 25 25 26 26 27 26 21 15 15 15 14 15 15 16 16 16 16 16 16 18 20 23 26 27 28 29 29 30 31 33 33 33 33 32 31 30 31 33 36 37 34 27 26 28 27 24 25 26 26 29 32 34 34 33 33
11 12 13 14 15 16 16 16 16 16 16 16 16 17 17 17 19 19 19 20 21 22 22 23 23 23 23 23 24 25 26 27 28 28 29 27 21 15 14 15 15 15 16 17 16 15 16 16 17 20 21 24 26 28 29 32 33 32 31 31 33 34 35 34 32 32 32 33 34 36 36 32 27 26 26 23 25 27 25 27 31 33 34 34 34
12 13 14 16 16 16 16 16 16 16 17 17 17 17 18 19 20 20 20 21 22 22 22 22 22 23 23 23 24 25 26 28 29 29 28 27 22 16 14 15 15 16 17 18 17 16 17 17 18 21 24 26 27 27 28 31 34 35 33 31 31 32 33 34 32 32 33 35 35 34 35 34 26 24 26 26 26 27 26 27 31 31 32 33 34
13 14 15 17 17 17 17 17 17 17 17 18 18 18 19 20 20 20 21 22 22 22 22 22 22 23 23 23 24 25 26 26 26 26 25 25 23 17 14 15 16 16 17 18 18 18 19 19 20 23 27 29 28 28 28 29 31 33 32 31 29 27 28 31 31 31 31 34 36 34 33 34 28 25 28 29 27 27 26 27 30 30 30 31 33
14 15 16 17 17 17 17 17 17 17 17 18 18 19 19 20 20 20 21 22 22 21 21 22 22 23 23 24 24 25 25 25 25 25 25 25 24 18 14 15 16 17 17 18 19 19 21 23 24 25 30 34 34 32 31 30 30 30 30 28 26 23 24 28 31 32 31 31 35 34 32 34 31 27 28 29 26 25 25 27 29 30 31 31 33
15 16 17 17 16 16 17 17 17 18 18 18 18 19 19 19 20 20 20 21 21 21 21 22 22 23 23 24 24 24 24 24 25 26 25 25 25 21 15 15 16 18 18 18 19 20 22 28 30 30 33 38 39 39 38 36 33 31 30 29 26 22 22 25 27 29 30 29 31 33 33 34 33 28 25 26 26 24 24 25 27 29 31 32 33
16 17 17 17 17 17 16 17 18 18 18 18 18 18 19 19 19 20 20 20 20 20 21 22 22 22 22 23 23 23 24 25 25 27 26 26 27 23 17 16 16 17 18 18 19 21 24 30 34 34 36 37 38 41 43 42 39 36 34 32 29 24 21 23 24 25 27 28 28 31 32 33 34 31 26 25 26 25 24 25 26 27 30 32 32
17 17 17 17 17 17 17 17 17 17 17 17 17 17 18 18 19 19 19 19 20 20 21 21 21 21 21 23 23 23 24 25 26 27 27 28 29 22 17 17 17 17 18 18 19 22 25 30 35 36 36 36 37 39 42 42 42 40 38 35 32 27 23 24 25 25 26 28 28 28 28 28 31 33 29 25 25 26 25 25 25 25 28 30 31
17 17 17 17 18 18 17 17 17 17 17 16 16 16 17 18 18 19 19 19 19 19 19 19 20 20 21 22 23 23 25 25 27 28 28 30 31 22 16 17 18 17 18 19 20 21 24 31 36 36 35 35 35 36 38 39 39 38 37 36 33 29 25 25 27 27 26 27 27 26 25 25 28 31 31 27 25 26 25 23 22 22 23 25 27
17 18 18 18 18 18 18 18 17 16 16 16 15 16 16 17 18 19 19 19 19 18 18 19 19 19 20 21 22 23 24 25 27 29 29 31 30 22 16 18 19 19 19 20 20 20 24 32 37 36 35 34 33 33 34 35 35 35 35 33 32 29 27 25 25 25 25 26 26 23 21 22 25 27 28 26 26 28 26 23 21 20 21 24 25
17 18 19 19 19 19 18 18 17 16 16 15 15 15 16 17 18 19 18 18 18 18 18 18 19 19 20 21 22 23 25 26 27 29 30 32 31 24 18 18 20 20 20 21 20 19 24 32 36 36 35 34 33 33 32 32 32 33 33 31 30 29 27 27 26 23 21 20 22 19 15 15 18 22 24 24 25 28 27 25 23 21 22 24 26
18 19 19 19 19 19 18 18 17 16 16 16 15 16 16 17 18 18 18 18 18 18 18 18 19 20 20 22 22 23 24 26 27 29 30 31 32 28 21 18 21 22 22 22 21 19 21 29 34 35 35 35 34 34 33 32 31 32 32 31 30 28 27 28 27 23 18 14 14 13 8 7 8 13 18 21 23 24 23 22 22 21 21 22 25
19 19 19 19 19 19 19 18 18 17 17 17 16 17 17 18 18 18 18 18 18 18 18 18 19 20 21 22 23 23 25 26 27 29 29 31 33 30 21 17 20 24 23 23 23 21 20 25 31 34 34 35 36 35 34 33 31 30 31 32 32 30 29 29 29 25 20 14 9 7 6 5 4 1 4 9 14 17 18 19 20 20 19 20 22
19 19 20 20 20 20 19 19 19 18 18 18 18 18 19 18 19 19 19 18 17 18 19 19 19 20 20 21 23 24 25 25 26 28 29 30 32 31 26 21 21 23 23 22 23 22 21 24 31 33 33 35 37 36 35 34 31 30 30 31 32 30 28 27 29 29 27 22 19 18 18 17 15 13 12 8 3 6 8 12 16 17 18 19 20
21 20 21 21 20 20 20 20 20 20 19 19 20 20 20 20 20 20 19 18 18 19 20 19 19 20 20 20 22 23 24 24 25 26 28 28 29 31 29 26 23 21 21 22 22 23 24 27 31 31 32 35 38 38 37 35 32 31 30 30 30 29 28 27 27 28 29 29 28 26 24 25 24 22 20 19 14 9 6 3 5 9 14 16 16
22 22 22 22 22 22 22 21 21 21 21 21 21 21 21 21 21 21 20 19 20 20 21 19 18 18 18 19 20 21 22 23 24 25 26 27 27 28 28 27 23 18 18 21 24 25 27 29 30 30 32 36 39 40 38 36 35 34 32 31 31 31 31 30 28 28 29 30 32 32 31 30 29 27 25 24 21 17 15 11 8 4 4 9 12
23 23 23 23 23 23 23 22 23 23 23 23 23 22 22 21 21 21 20 20 20 20 20 18 16 16 16 16 18 18 19 21 23 24 24 25 26 25 25 25 24 20 20 22 24 26 28 29 30 31 33 35 38 40 38 37 36 36 36 35 35 36 37 37 35 33 32 31 32 34 35 34 32 30 29 27 24 22 19 17 14 12 8 3 3
24 24 24 24 24 23 23 23 23 24 23 23 22 22 22 21 21 21 19 18 17 17 16 15 14 14 14 14 16 17 17 19 21 23 24 24 24 23 22 23 24 23 22 23 24 26 28 30 32 33 34 34 34 35 36 37 36 36 38 39 39 40 42 43 42 40 38 36 34 34 35 35 33 31 29 28 27 25 22 19 17 16 13 10 7
25 25 25 25 24 23 23 23 23 23 23 22 21 21 20 19 18 17 17 16 15 14 14 14 13 13 13 14 15 16 18 19 20 22 23 23 23 23 22 22 23 23 23 24 25 27 29 31 33 34 34 34 32 30 33 37 37 36 38 39 41 43 45 45 46 45 44 42 39 36 33 33 33 31 28 28 28 28 26 23 20 19 17 13 9
25 24 24 23 23 22 22 22 22 22 21 20 19 18 16 15 14 14 14 14 14 14 13 13 13 13 13 14 14 15 17 18 19 20 21 20 20 21 22 23 23 23 23 24 25 27 29 31 32 32 33 33 31 28 29 33 37 38 38 38 40 42 44 45 45 45 46 45 43 39 35 32 31 31 30 30 31 31 30 27 24 23 22 18 16
25 24 24 23 21 19 19 20 20 20 18 16 15 15 13 13 13 11 11 11 12 13 13 14 14 13 13 13 13 14 16 17 18 19 20 20 19 20 22 23 24 23 23 24 24 25 27 29 29 29 31 32 31 29 28 29 32 36 39 39 39 40 41 42 43 43 43 43 43 41 39 36 34 34 35 34 34 33 32 31 29 28 26 24 23
23 23 22 21 18 18 19 18 16 15 14 12 12 12 12 12 12 12 12 11 11 11 12 13 14 14 14 13 12 12 14 16 18 19 19 20 19 20 21 22 23 22 22 24 24 23 25 27 27 28 31 32 31 29 30 29 28 32 36 38 38 38 38 39 41 41 40 41 42 42 43 43 42 40 38 38 37 35 34 34 33 31 29 28 29
22 21 20 18 17 17 17 15 13 12 13 12 12 12 12 12 12 13 13 14 13 13 14 14 14 14 15 15 14 13 14 16 17 17 17 17 18 19 20 21 22 20 21 23 24 23 24 27 27 27 29 31 30 28 29 29 28 29 32 34 36 38 38 39 40 40 39 39 40 40 42 45 45 44 43 43 42 39 37 36 35 32 31 30 29
20 19 18 16 16 15 13 12 12 12 12 12 12 13 13 12 13 13 13 14 14 14 15 15 15 14 14 15 15 15 15 16 16 16 15 15 16 16 17 18 19 18 19 23 24 24 24 24 24 24 25 27 28 27 27 28 28 28 29 30 33 35 37 37 37 38 38 38 38 37 37 39 41 42 44 44 45 43 41 39 37 35 33 31 28
18 17 16 15 15 14 12 12 12 11 10 10 10 10 11 11 11 12 12 12 13 13 14 15 15 15 14 14 14 15 15 15 15 16 15 15 15 15 15 15 15 16 19 23 24 24 23 21 21 22 23 24 26 25 25 26 27 27 27 28 29 32 34 34 34 35 37 37 37 38 37 35 35 37 39 40 41 43 43 42 40 39 36 32 29
17 16 15 16 16 13 12 12 11 10 10 9 8 8 8 7 8 9 10 10 11 11 12 12 13 13 13 12 12 12 13 13 14 15 15 15 15 15 14 14 14 15 19 23 23 22 21 20 20 21 21 22 24 24 24 24 25 25 26 27 28 29 31 31 31 33 35 36 36 38 39 36 34 35 36 35 37 40 41 40 39 38 38 36 31
16 15 15 16 15 13 11 11 10 10 9 8 7 7 6 5 5 4 6 8 10 10 10 11 11 12 12 11 10 10 11 12 14 14 14 15 14 14 14 15 17 19 20 21 21 21 20 19 19 20 20 21 22 23 23 23 24 24 25 26 26 27 28 28 29 31 33 34 35 36 37 35 33 33 34 34 33 34 35 36 35 34 35 36 34
15 14 15 15 14 12 11 11 9 9 8 7 7 6 5 5 5 3 1 4 7 9 10 10 9 10 10 10 10 9 9 11 12 12 13 14 13 12 14 17 18 19 18 17 17 18 19 19 19 19 20 20 22 22 22 22 23 23 23 24 25 26 27 28 29 29 29 31 33 34 34 33 31 30 31 32 32 30 29 30 33 33 33 35 35
14 15 17 16 13 11 11 10 9 9 8 7 6 6 5 4 4 3 2 1 2 2 4 6 7 9 9 8 8 9 9 9 10 11 12 12 12 13 15 15 14 14 15 15 15 16 17 18 18 18 19 20 20 21 22 22 23 23 23 23 25 26 27 28 29 29 27 28 30 31 31 31 30 29 28 28 30 30 28 26 28 30 31 34 37
14 15 17 15 12 10 11 10 9 8 7 6 6 5 4 4 3 2 2 1 1 1 1 1 4 8 10 9 7 8 8 9 9 9 10 10 11 13 13 12 11 12 13 14 14 14 15 16 16 17 18 19 19 20 21 21 22 23 23 23 24 26 27 27 28 28 27 26 28 28 28 28 29 28 27 27 28 29 28 26 25 26 28 30 32
14 14 15 13 11 10 11 9 8 9 8 7 5 4 3 3 2 2 2 1 0 0 0 1 3 6 9 9 8 8 8 9 10 10 9 10 11 12 11 10 10 11 11 12 13 13 13 15 16 16 17 18 18 19 20 21 21 23 24 24 24 25 26 26 26 27 26 25 26 26 26 26 26 25 26 27 27 27 28 27 25 25 25 26 27
14 13 13 13 11 11 10 9 8 9 8 6 4 4 3 3 2 2 1 1 1 0 0 1 1 1 3 6 7 8 9 10 11 11 10 10 10 10 9 9 10 10 10 11 12 12 12 13 15 15 16 17 17 18 19 20 21 22 23 23 23 24 25 24 25 25 25 24 24 24 24 24 23 23 23 24 24 25 26 26 25 23 23 23 24
14 13 14 14 12 10 9 8 8 7 6 5 4 4 3 3 3 2 2 2 1 0 1 1 2 2 2 3 5 6 7 6 6 6 7 7 7 7 7 7 8 9 9 9 10 11 11 12 13 14 15 15 16 17 17 18 20 21 22 22 23 23 24 24 24 23 23 23 22 22 23 22 21 21 22 22 22 22 22 23 23 22 21 21 21
14 14 15 15 12 10 8 8 7 7 6 5 5 4 4 4 4 3 3 3 3 2 2 2 2 3 3 3 3 3 3 3 4 4 5 6 6 6 6 6 6 7 8 8 9 9 9 10 11 13 14 15 16 16 17 18 19 20 20 21 21 21 22 23 22 22 22 21 20 20 21 21 20 20 20 21 20 20 19 20 20 20 20 20 19
14 13 14 13 12 10 9 8 7 7 7 6 6 5 5 5 5 5 5 5 4 4 4 4 3 4 6 6 4 2 1 2 4 5 5 5 5 5 5 5 5 6 6 7 7 8 8 9 10 12 13 14 15 16 17 17 18 19 20 20 20 20 20 21 21 21 21 20 19 19 18 18 18 18 18 18 18 18 18 18 17 17 18 18 17
14 13 12 12 12 11 10 9 8 8 8 7 7 7 6 6 6 6 6 6 6 6 6 5 5 6 8 8 5 3 2 3 4 5 5 4 5 5 5 5 5 5 5 5 6 7 8 9 10 10 11 13 14 15 15 16 16 17 18 19 20 20 20 20 20 20 19 19 19 18 17 16 16 15 16 16 16 16 16 16 16 16 15 15 15
13 12 11 11 11 11 10 10 9 9 9 8 8 8 7 7 7 6 7 7 6 7 7 7 6 7 9 9 7 5 3 4 5 6 5 5 6 6 5 5 5 6 6 6 6 6 7 8 8 9 10 11 12 13 13 14 14 15 16 17 18 19 20 19 19 19 18 18 19 18 17 16 15 14 13 14 14 14 13 14 14 14 14 13 12
13 12 11 11 11 10 10 10 10 10 10 10 10 9 8 8 7 7 7 7 7 7 7 8 7 7 8 9 8 6 5 5 6 7 6 6 6 6 5 6 7 7 7 6 7 7 7 7 7 8 9 9 10 11 11 12 13 13 14 15 16 17 18 18 19 19 18 18 18 18 17 17 15 14 13 13 12 12 11 11 11 12 12 12 11
13 12 11 11 10 10 10 10 10 11 11 11 10 10 9 9 8 8 8 8 7 7 7 8 8 8 8 8 8 7 7 7 8 7 7 7 7 7 7 7 8 9 8 8 8 9 9 8 8 8 8 9 9 9 10 10 11 12 13 13 14 15 16 16 17 17 17 17 17 16 16 16 16 15 14 13 12 11 11 9 8 8 9 10 9
13 12 12 11 10 10 9 9 10 10 11 11 10 10 10 10 9 9 9 8 8 8 8 8 8 9 9 9 9 9 9 9 8 8 8 8 8 8 8 8 9 9 10 10 10 11 11 10 9 9 9 9 9 9 8 8 9 11 12 12 12 13 14 14 15 15 15 16 16 15 15 15 15 15 14 12 11 11 10 9 8 6 7 8 7
13 13 12 11 11 10 9 9 9 10 11 11 11 10 10 10 9 10 10 10 10 10 10 9 9 10 10 10 10 10 10 10 10 10 10 9 9 9 9 10 10 11 11 11 12 12 13 12 12 11 11 11 10 10 8 7 7 9 10 10 11 12 12 12 12 13 14 14 14 14 14 14 13 14 14 13 11 10 10 9 8 7 6 6 5
13 13 13 12 12 11 10 10 10 11 11 12 12 12 11 11 11 10 11 11 11 11 11 11 11 11 11 11 11 12 12 12 11 11 11 11 11 11 11 12 12 12 12 13 13 13 14 14 14 14 13 13 13 12 10 9 8 8 9 9 10 10 10 10 10 11 11 11 12 12 13 12 12 12 13 13 12 11 10 9 8 7 6 6 5
14 14 13 13 13 12 11 11 10 11 11 12 12 12 12 12 12 12 11 12 12 12 12 13 13 12 12 12 12 12 12 13 13 12 12 11 11 12 12 14 14 14 14 15 15 15 15 15 15 15 15 15 15 14 14 12 11 10 10 10 11 11 11 10 10 9 9 10 10 11 11 11 11 11 12 12 11 11 10 9 9 8 7 7 6
15 15 14 13 13 13 13 12 11 11 11 12 12 12 12 12 12 12 12 13 13 13 13 14 14 14 14 14 13 13 13 13 13 13 13 13 13 12 13 14 16 16 16 16 17 17 17 18 17 17 17 17 16 16 16 16 15 14 13 13 13 13 12 12 12 10 10 9 9 9 9 10 10 10 10 10 10 10 10 9 9 8 7 7 7
16 16 15 14 14 14 13 13 13 12 12 12 12 12 12 12 12 13 13 13 13 14 14 14 14 14 14 14 14 14 14 14 15 14 14 15 15 14 15 16 18 18 18 18 18 18 19 19 20 20 19 19 18 18 18 18 17 17 16 16 15 15 14 14 13 13 12 11 10 9 9 10 10 10 10 10 10 10 9 9 9 7 6 7 7
Wind_Direction
97 112 115 114 111 108 105 100 96 93 90 85 78 71 66 60 53 47 44 38 33 31 29 29 30 29 28 26 24 23 21 19 17 15 15 14 12 10 9 8 7 4 359 355 354 352 348 344 339 336 335 335 336 332 325 319 313 305 298 291 282 277 283 290 286 282 282 281 281 282 281 279 278 277 274 267 264 265 262 254 247 242 239 241 240
113 120 118 114 110 107 103 99 95 91 87 82 76 70 65 60 55 49 46 44 40 38 38 37 36 35 33 32 30 29 28 25 22 19 18 18 18 16 15 14 12 6 358 354 354 352 349 347 343 341 342 342 341 339 332 326 321 314 307 300 291 282 280 286 290 291 289 286 282 280 281 280 277 277 274 267 264 266 261 251 243 238 236 240 242
117 121 118 113 108 105 101 97 94 91 86 82 76 71 66 61 57 53 51 50 47 45 44 43 42 40 38 36 35 33 31 29 26 24 21 20 19 17 16 15 11 4 357 355 354 352 350 351 348 343 342 342 340 337 332 327 322 319 316 312 307 299 290 285 285 289 293 292 287 281 279 279 278 276 273 270 269 266 260 251 241 235 236 240 241
113 115 115 111 106 104 101 98 96 93 88 83 78 74 69 65 62 58 56 56 53 51 50 48 46 45 42 39 37 34 32 30 28 27 24 22 19 16 14 11 6 360 356 354 353 350 349 349 347 343 341 339 337 334 331 326 322 319 316 313 310 307 304 297 290 287 288 290 289 286 280 277 278 277 273 273 271 264 259 254 245 237 236 238 238
110 111 110 105 105 105 103 102 99 94 89 84 80 76 72 69 66 63 61 60 58 56 54 52 50 48 45 42 38 35 34 31 29 28 26 24 21 17 13 8 2 360 357 354 352 350 349 347 344 343 342 340 338 335 331 327 324 321 317 313 310 306 304 303 299 292 287 284 284 286 283 275 274 276 274 273 270 263 258 255 249 242 237 237 237
111 110 107 106 109 108 106 103 99 94 89 85 80 77 74 71 68 66 64 62 61 59 57 55 53 50 47 43 39 36 34 32 30 28 26 26 22 16 11 7 3 1 359 355 353 351 349 347 345 345 345 344 342 338 334 329 326 323 320 317 313 308 304 302 302 299 293 285 280 281 281 274 270 274 274 270 267 261 255 252 250 244 238 236 238
114 113 113 115 113 110 107 103 98 93 88 85 82 79 76 73 71 68 66 65 64 62 60 57 55 52 48 43 39 36 33 31 30 28 26 25 23 14 9 8 4 3 1 357 355 354 351 350 348 347 346 345 344 342 339 336 331 326 323 320 316 311 306 302 300 300 298 293 284 278 279 276 271 273 274 271 269 264 253 249 248 245 240 237 236
119 118 118 118 114 111 107 102 97 93 88 86 84 81 78 75 73 69 67 66 66 63 61 59 57 54 49 45 40 36 32 29 27 26 24 23 22 15 9 8 5 4 5 2 358 356 354 352 351 349 347 346 344 344 342 342 338 332 326 321 315 312 309 305 301 298 297 296 290 281 278 276 270 269 274 272 267 262 253 247 246 243 240 239 237
124 122 120 117 113 110 106 102 97 93 91 88 85 82 79 76 73 71 68 67 66 64 62 61 59 55 51 47 42 37 34 29 25 23 21 20 22 18 11 9 7 4 5 4 2 359 356 355 353 352 351 348 344 343 342 343 342 338 333 327 318 312 309 307 305 301 297 296 294 287 281 277 269 263 269 271 267 264 259 251 248 245 243 243 242
124 122 119 115 113 110 106 103 99 96 93 89 86 83 79 77 74 72 70 68 66 65 63 62 60 58 54 49 44 39 35 31 27 24 21 20 24 23 14 11 10 6 4 4 3 1 358 357 356 355 355 352 346 343 342 341 341 338 336 333 327 320 314 310 308 305 301 295 293 289 282 277 271 262 266 271 270 268 263 254 251 248 245 243 245
125 122 119 115 114 111 107 105 102 98 94 90 87 84 80 78 76 73 71 69 67 65 63 62 60 58 56 50 46 42 38 33 30 27 24 23 27 28 18 13 13 10 7 6 3 1 360 0 0 358 357 356 351 348 346 343 340 336 333 332 330 330 326 319 315 313 308 299 292 287 280 276 273 266 266 270 268 264 261 256 252 250 246 240 240
128 124 120 116 115 112 110 108 104 100 95 91 89 85 82 80 76 74 72 69 67 65 64 63 61 58 57 52 48 44 39 36 32 30 28 27 32 35 24 15 16 13 11 9 4 2 1 3 4 0 358 357 353 349 349 348 345 341 337 334 332 333 333 326 319 314 310 304 294 285 277 275 274 268 263 265 265 262 259 257 252 248 246 242 238
132 127 123 121 119 115 113 111 105 101 97 93 90 86 83 81 77 74 73 70 69 66 64 63 60 58 58 54 49 45 41 38 35 33 31 30 35 38 27 17 19 16 13 11 7 5 4 5 6 3 359 358 353 349 348 349 349 347 344 340 336 336 337 327 316 307 302 301 295 284 277 275 275 271 263 262 264 262 260 260 256 248 246 244 241
134 130 127 124 121 117 116 112 107 102 98 94 91 88 85 82 79 77 75 72 69 66 63 62 60 58 59 56 51 46 43 40 37 36 34 34 38 39 27 21 22 18 15 14 10 9 7 7 6 4 1 358 353 348 347 349 351 349 347 345 342 340 341 333 324 316 305 298 293 285 277 274 274 272 266 260 259 259 259 261 260 254 249 247 245
133 131 129 125 123 120 118 114 108 104 100 96 94 91 87 85 82 80 77 73 69 66 63 62 60 58 59 58 52 46 43 40 39 38 36 38 40 38 27 25 23 18 17 16 13 10 9 9 7 4 3 360 353 349 348 350 352 349 347 348 346 343 343 339 334 329 316 302 293 286 279 273 271 271 269 262 254 254 257 257 259 261 258 254 252
134 134 130 126 124 121 118 115 109 105 102 99 97 94 90 88 85 80 76 73 69 67 64 62 60 58 57 57 53 47 43 40 40 39 37 39 42 37 27 26 24 20 19 17 13 11 11 11 9 7 5 2 355 352 352 353 354 353 351 350 349 346 345 345 341 333 320 305 293 287 281 274 270 270 269 262 250 248 250 251 253 257 257 255 252
137 134 130 127 124 120 118 115 111 108 106 103 101 97 93 89 85 80 76 74 71 68 64 61 59 56 56 57 54 48 44 40 40 40 38 39 42 38 31 29 25 21 20 17 14 11 9 10 11 10 9 6 0 358 358 358 358 358 357 357 356 352 350 351 348 337 325 308 294 288 287 280 273 269 265 257 247 243 244 247 250 251 252 252 249
136 133 129 127 123 119 117 115 113 113 111 109 105 100 94 89 85 82 78 74 72 70 66 63 60 57 53 54 54 50 44 41 39 40 38 38 40 39 35 30 26 23 21 17 16 13 9 10 12 14 14 11 8 5 3 3 3 3 2 2 3 3 2 3 359 347 335 317 295 288 291 286 275 271 267 259 248 241 237 240 246 248 249 251 249
136 133 129 126 122 120 119 118 117 116 113 111 106 99 94 89 85 83 79 76 74 72 70 66 63 61 56 53 53 51 45 40 37 38 38 37 38 38 35 31 28 24 21 18 17 16 13 11 13 16 17 16 15 12 9 8 9 9 7 5 5 7 11 15 14 8 2 356 350 4 24 41 68 62 283 264 247 238 235 236 238 240 243 247 249
137 133 128 125 122 121 121 120 119 117 113 109 104 98 93 89 86 84 82 81 80 76 74 70 66 64 60 54 52 49 45 40 36 36 36 35 36 37 37 38 36 27 21 21 19 16 15 15 16 18 20 21 19 16 13 12 13 14 13 12 10 7 8 15 21 24 25 25 27 36 45 53 61 66 65 71 136 202 222 234 235 236 239 241 244
137 132 127 125 123 122 122 121 118 115 110 105 101 97 94 91 89 87 85 84 82 79 77 73 67 64 62 57 53 48 44 40 36 34 35 34 34 35 36 39 41 31 22 23 24 21 20 21 20 21 24 26 24 20 18 18 19 19 19 20 18 13 10 13 19 25 30 33 32 33 42 51 49 45 53 67 76 86 102 150 213 230 237 238 238
133 129 126 125 125 123 121 119 116 112 107 103 99 96 95 93 90 89 87 84 82 81 79 75 70 65 61 57 54 48 42 39 37 35 35 35 34 33 33 35 37 33 26 26 28 28 27 27 25 25 29 32 30 26 23 24 26 27 26 27 28 26 23 22 21 22 26 32 35 34 36 43 40 33 42 58 63 64 70 76 81 100 211 234 238
130 129 128 127 125 123 121 118 114 110 107 104 100 97 95 93 91 89 87 83 81 79 77 74 70 66 60 55 53 49 42 39 38 38 38 36 34 33 33 32 33 36 36 33 32 32 32 32 30 30 33 36 34 30 29 30 32 32 31 31 33 35 35 32 30 29 27 28 34 35 35 35 33 30 36 46 50 54 60 64 65 69 75 94 217
133 132 130 128 125 122 120 117 114 111 108 104 101 99 95 92 90 89 87 84 81 78 75 72 68 64 60 53 49 48 44 40 39 40 42 40 35 33 34 32 32 37 41 39 37 35 34 34 34 34 35 35 32 29 31 34 35 32 31 32 34 37 39 38 36 36 34 31 32 34 35 34 32 32 37 41 43 48 55 60 62 60 60 67 76
135 132 130 128 127 124 122 120 116 113 110 105 102 99 95 91 89 88 86 84 81 76 73 70 66 62 57 52 47 44 43 41 39 38 40 39 34 33 35 34 32 35 38 39 37 36 34 35 35 35 35 34 29 25 28 32 34 34 32 32 34 36 39 40 38 38 39 37 34 33 35 37 36 36 38 43 46 48 50 55 60 58 54 60 69
134 132 131 130 128 126 123 122 118 113 110 106 102 98 94 92 89 85 82 81 79 76 73 68 64 60 54 50 46 41 39 39 39 38 37 34 29 28 32 34 33 33 35 36 34 31 31 33 33 31 32 34 30 24 23 25 29 33 35 34 35 37 38 39 39 39 39 40 38 35 36 39 42 42 43 46 49 49 46 47 53 55 54 57 62
136 136 135 131 129 128 126 122 117 110 105 101 98 95 93 95 96 91 85 79 73 72 71 68 63 59 54 50 45 38 35 36 36 37 37 34 29 26 27 31 32 30 32 36 36 30 28 31 30 27 29 33 31 27 25 23 23 28 32 34 36 38 39 39 40 40 41 42 42 41 40 41 44 45 45 46 50 51 49 48 49 51 52 55 58
138 137 135 132 132 133 127 119 114 110 106 103 101 99 95 95 98 101 99 95 86 77 74 72 66 58 55 54 49 38 34 34 34 35 33 30 28 25 25 28 30 27 29 36 37 31 27 29 29 26 27 30 29 26 25 24 22 22 26 31 34 37 39 40 41 41 41 43 45 44 42 41 43 46 47 47 48 51 53 54 52 51 52 55 56
139 138 136 134 135 133 125 118 117 116 114 113 114 114 110 102 99 96 94 94 91 85 80 77 73 65 58 56 54 47 39 37 36 35 31 27 24 23 23 26 27 25 29 37 39 33 29 29 27 24 23 25 25 22 21 21 21 20 20 24 29 34 37 38 38 39 40 42 45 44 40 37 40 44 47 49 49 49 51 54 54 53 53 55 55
141 140 138 137 137 133 128 127 126 121 116 114 112 110 107 103 101 95 87 84 82 78 75 71 69 67 61 55 52 48 42 39 38 37 35 32 27 23 23 26 26 24 31 39 40 35 30 26 23 21 20 21 21 19 17 17 18 17 17 19 22 28 32 34 35 38 41 42 44 45 39 33 35 40 43 46 49 49 51 53 53 52 52 52 52
144 142 142 143 141 137 137 136 132 130 129 126 118 109 100 94 91 86 81 77 73 70 68 64 61 61 60 54 48 43 38 37 36 36 36 36 33 29 27 28 27 27 34 41 40 34 29 23 19 19 18 18 19 18 15 14 15 15 16 17 18 21 26 29 30 34 40 43 45 48 44 34 32 36 39 42 45 47 48 49 50 50 50 49 48
148 146 150 152 146 141 143 142 138 138 139 137 137 135 125 106 88 76 69 66 64 61 60 59 56 54 54 53 49 42 37 36 35 33 33 36 36 34 31 32 34 36 40 41 37 33 28 22 18 18 16 16 17 17 14 14 14 14 15 15 16 17 21 25 28 32 36 41 45 49 47 40 36 39 41 41 43 44 44 45 47 48 49 48 48
151 151 155 156 149 145 148 148 145 145 146 147 148 148 146 140 125 93 53 39 36 37 41 46 49 48 47 49 49 44 37 37 36 33 32 34 35 34 34 39 41 41 40 37 31 29 28 23 19 19 17 15 16 16 15 14 13 14 15 14 15 17 18 24 30 31 32 39 44 45 45 42 39 39 40 39 40 42 43 44 45 48 50 50 49
154 155 156 155 152 150 151 151 152 153 152 153 151 148 149 146 138 135 86 15 11 11 11 14 26 37 38 37 40 41 39 37 35 33 34 34 33 33 37 38 36 33 33 31 27 26 26 23 19 18 17 16 16 15 15 14 13 14 15 14 15 19 20 26 35 33 28 35 42 41 39 39 36 35 37 39 39 40 43 45 46 47 51 55 56
159 162 158 153 152 156 157 156 158 158 156 156 154 150 150 145 128 124 132 109 47 20 359 351 2 21 28 29 32 35 37 37 34 34 34 31 31 37 39 34 27 24 26 26 25 24 23 22 19 17 16 17 16 15 15 15 13 14 17 14 14 21 24 28 37 38 29 30 38 38 36 37 37 34 36 40 42 42 43 45 48 50 52 57 61
160 164 161 156 156 164 164 160 160 161 159 158 155 150 147 147 141 129 120 110 105 124 142 294 323 349 2 12 23 29 32 33 33 34 34 30 33 40 38 28 22 22 22 23 25 23 20 20 19 17 16 17 17 16 17 17 15 18 23 18 15 22 27 27 33 40 35 29 33 36 33 34 36 36 36 39 42 44 45 46 49 53 54 55 58
161 164 165 164 165 169 167 166 172 176 168 158 154 152 149 146 138 132 134 134 145 194 188 236 279 320 338 347 356 15 30 30 26 27 30 29 34 38 32 23 24 23 19 21 25 22 17 17 18 17 16 18 18 18 18 20 20 22 27 25 21 24 29 27 29 37 38 32 32 34 32 30 32 35 36 38 40 43 46 46 46 49 53 54 55
166 167 172 172 169 170 171 174 180 180 171 164 167 170 168 168 160 155 165 144 87 110 258 268 262 281 305 311 325 355 17 19 12 10 12 16 23 27 21 19 24 23 17 18 23 21 16 15 16 17 17 17 19 19 19 22 25 25 27 28 26 26 29 30 29 34 38 36 33 34 33 30 29 32 34 36 37 40 44 47 47 47 49 51 53
174 177 180 176 170 171 175 177 181 183 181 184 194 192 189 195 195 194 205 223 251 274 268 277 269 255 258 276 299 331 352 356 349 347 352 0 10 15 13 13 17 19 18 17 18 18 16 13 14 18 20 20 21 22 21 24 28 28 27 28 29 28 29 30 30 32 37 38 36 37 37 34 31 33 34 33 34 37 40 44 48 50 51 52 54
178 181 181 176 173 178 184 183 187 193 196 199 204 206 208 215 219 221 222 228 239 252 261 269 264 259 263 269 274 292 304 301 306 318 333 349 0 3 4 4 6 11 16 13 13 17 18 13 13 18 23 25 27 29 28 28 31 32 31 29 30 30 30 29 29 31 35 36 36 39 41 38 35 37 37 33 32 35 38 40 45 50 53 55 57
179 182 183 181 181 189 196 197 199 204 207 210 214 217 221 225 226 228 232 237 243 250 258 267 264 257 268 283 302 332 312 286 288 298 313 332 343 345 349 353 355 2 7 5 9 15 19 19 19 19 22 26 29 30 31 32 33 35 35 32 31 33 33 30 29 31 34 35 33 34 40 40 36 37 41 38 33 34 39 40 40 45 51 53 55
180 182 186 189 193 199 206 211 213 215 217 219 221 224 229 232 232 231 234 240 246 251 256 259 257 260 275 292 313 339 330 289 279 286 296 304 311 320 333 338 337 344 351 355 4 11 15 19 21 17 16 21 24 25 28 30 31 33 35 33 32 33 34 33 32 32 34 36 34 31 35 39 35 32 38 42 37 36 41 44 41 40 44 49 52
185 187 191 197 202 208 213 217 218 219 221 223 225 228 230 229 231 235 238 242 248 253 257 258 254 258 274 289 302 318 318 288 276 283 289 284 285 298 310 313 314 325 336 340 344 352 0 9 12 8 8 13 16 17 19 21 23 27 29 29 29 30 31 31 32 32 33 37 38 33 32 36 34 29 32 39 39 37 43 49 47 42 40 42 48
192 195 199 202 207 212 216 219 220 220 221 221 222 225 227 228 232 237 239 243 250 254 256 259 254 251 263 279 291 301 298 275 267 273 277 277 282 289 288 286 299 317 328 326 324 329 338 345 347 350 355 1 4 5 8 10 12 15 18 20 22 24 24 25 28 30 30 34 37 35 31 32 34 32 31 32 34 34 37 44 48 47 42 39 46
198 201 202 205 208 211 215 219 220 219 220 222 223 225 226 227 231 236 239 244 252 255 257 260 258 252 253 262 269 273 270 264 264 270 272 273 278 281 277 279 293 310 318 317 317 323 329 329 327 330 335 340 345 349 354 357 0 2 6 9 11 14 15 17 19 23 26 29 32 34 32 29 29 31 31 29 27 29 33 37 41 45 42 36 38
198 202 203 205 207 209 213 218 219 217 216 217 219 223 226 227 232 238 241 244 249 254 258 261 260 257 256 256 257 260 261 261 263 267 268 270 272 273 273 275 283 297 306 309 311 317 322 322 320 318 319 322 327 331 336 342 345 348 353 356 357 0 5 8 9 15 20 22 25 30 31 28 25 25 27 29 26 25 29 33 33 36 38 32 26
201 205 206 207 209 211 214 218 217 216 217 217 219 223 227 230 234 239 243 247 251 254 258 261 260 260 259 258 258 259 260 261 263 264 265 268 271 272 274 276 281 291 299 301 303 308 312 314 315 315 314 313 316 319 323 324 322 326 335 342 344 346 351 355 359 7 12 13 15 21 26 26 23 20 21 24 25 24 27 28 26 26 28 23 15
206 208 209 211 214 215 217 220 220 219 219 220 223 227 231 236 241 244 247 251 254 254 256 259 260 261 261 260 260 260 260 261 263 263 265 268 271 272 276 281 286 290 293 293 296 299 300 301 304 306 307 307 307 309 312 310 305 308 315 319 324 332 338 341 347 357 1 1 5 12 15 15 15 16 16 17 18 18 20 21 20 20 19 14 9
211 212 214 216 218 219 220 222 224 224 224 224 227 231 234 238 244 247 249 253 255 256 257 259 259 260 261 261 262 262 261 260 261 263 264 266 268 269 274 283 290 293 291 290 290 291 291 293 295 296 297 299 299 300 302 301 299 298 299 301 309 319 324 328 334 340 343 347 355 1 0 358 1 5 7 7 9 11 12 12 14 15 10 3 3
216 217 219 220 222 224 226 226 226 228 228 226 229 234 237 240 245 249 253 256 257 258 259 260 260 261 261 261 262 263 262 260 261 262 264 266 268 268 271 280 291 297 297 295 293 291 288 287 288 289 290 291 291 291 293 294 293 292 292 294 301 308 310 313 319 323 326 332 338 340 340 342 344 347 350 351 353 359 1 359 3 12 5 347 346
220 222 224 226 227 227 229 230 230 231 231 231 233 237 241 245 249 252 255 257 259 260 262 262 262 263 262 262 262 262 262 261 262 263 264 266 268 267 269 276 287 294 297 298 299 299 295 290 287 285 285 286 286 286 286 286 287 288 289 290 293 296 297 300 306 309 311 316 319 319 321 325 325 325 330 333 333 337 342 342 349 3 1 337 331